[[{"header":{"parameterUnit":"m.s-1","parameterCategory":1,"la1":30.2991,"la2":30.254,"lo1":-89.0895,"lo2":-89.0444,"dy":0.0017,"dx":0.0017,"nx":28,"ny":28,"refTime":"2025-06-03T21:00:00:Z","depth":0,"parameterNumber":2,"parameterNumberName":"U-component_of_WINDS"},"data":[0,0,0,0,0,0,0,0,0,0,0,0,0,0,0,0,0,0,0,0,0,0,0,0,0,0,0,0,0,0,0,0,0,0,0,0,0,0,0,0,0,0,0,0,0,0,0,0,0,0,0,0,0,0,0,0,0,0,-6.3069,-6.307,0,-6.3093,-6.3093,-6.3093,-6.2981,-6.2978,-6.2975,-6.2972,-6.2993,-6.2997,-6.3,0,0,0,0,0,0,0,0,0,0,0,0,0,-6.2926,-6.293,-6.3069,-6.307,-6.307,-6.3093,-6.3093,-6.3093,-6.2982,-6.2978,-6.2974,-6.297,-6.2992,-6.2996,-6.3001,0,0,0,0,0,0,0,0,0,0,0,0,0,-6.2973,-6.2931,-6.3069,-6.3017,-6.3013,-6.3092,-6.3093,-6.3093,-6.2983,-6.2978,-6.2973,-6.2968,-6.2991,-6.2996,-6.3001,-6.3132,0,0,-6.3018,-6.302,0,0,0,0,0,0,0,0,-6.2971,-6.2978,-6.3025,-6.3021,-6.3016,-6.3029,-6.305,-6.3106,-6.2984,-6.2994,-6.2972,-6.2966,-6.3009,-6.3013,-6.3028,-6.3133,-6.3134,-6.3018,-6.3022,-6.3024,-6.3025,0,0,0,0,0,0,0,-6.2967,-6.2977,-6.3078,-6.3025,-6.302,-6.2992,-6.2993,-6.306,-6.3028,-6.2993,-6.2985,-6.2989,-6.3006,-6.3023,-6.3027,-6.3134,-6.3018,-6.3023,-6.3026,-6.3028,-6.3346,-6.3351,0,0,0,0,0,0,-6.2971,-6.2975,-6.3078,-6.3079,-6.2981,-6.2998,-6.3,-6.303,-6.3027,-6.3022,-6.2993,-6.2984,-6.3016,-6.3021,-6.3028,-6.3178,-6.3024,-6.3029,-6.3032,-6.334,-6.3347,-6.3352,0,0,0,0,0,0,-6.2969,-6.2982,-6.3077,-6.3025,-6.3035,-6.3006,-6.3041,-6.3033,-6.3049,-6.3028,-6.3021,-6.3016,-6.3012,-6.302,-6.3106,-6.3177,-6.3031,-6.3036,-6.3334,-6.3342,-6.335,-6.3481,0,0,0,0,0,0,-6.2965,-6.2981,-6.3031,-6.3027,-6.3038,-6.3156,-6.3045,-6.3037,-6.3059,-6.3047,-6.3048,-6.3043,-6.3009,-6.3099,-6.3112,-6.3182,-6.304,-6.3328,-6.3338,-6.3347,-6.347,-6.3493,-6.3512,0,0,0,0,0,-6.296,-6.3067,-6.3034,-6.3047,-6.3099,-6.316,-6.3167,-6.3126,-6.3066,-6.3114,-6.3101,-6.3043,-6.3169,-6.3109,-6.3122,-6.3195,-6.3323,-6.3335,-6.3346,-6.3461,-6.3488,-6.3511,0,0,0,0,0,0,-6.3079,-6.3065,-6.3029,-6.3137,-6.3151,-6.3141,-6.3202,-6.3156,-6.3186,-6.3174,-6.3121,-6.3122,-6.3217,-6.3215,-6.3149,-6.332,-6.3235,-6.325,-6.3318,-6.3343,-6.3363,-6.336,-6.3045,0,0,0,0,0,-6.3118,-6.317,-6.3155,-6.3252,-6.3261,-6.3231,-6.3256,-6.3223,-6.3235,-6.324,-6.3232,-6.3245,-6.3287,-6.3316,-6.3353,-6.3471,-6.3468,-6.3528,-6.3548,-6.3565,-6.3578,-6.3638,-6.3664,-6.3391,-6.3391,-6.339,0,0,-6.3199,-6.3198,-6.3233,-6.3276,-6.3282,-6.3335,-6.3236,-6.3297,-6.3335,-6.3249,-6.3329,-6.3325,-6.3336,-6.3438,-6.3482,-6.3439,-6.3653,-6.358,-6.3594,-6.3597,-6.3653,-6.3678,-6.3701,-6.3399,-6.3397,-6.3396,0,0,-6.3371,-6.3377,-6.3458,-6.3467,-6.3479,-6.3458,-6.3478,-6.3476,-6.347,-6.355,-6.3486,-6.3531,-6.3606,-6.3615,-6.363,-6.3809,-6.3756,-6.3823,-6.3929,-6.3989,-6.401,-6.4029,-6.409,-6.4113,-6.3836,-6.3837,-6.3837,0,-6.3469,-6.3548,-6.3505,-6.357,-6.359,-6.3516,-6.3596,-6.3607,-6.3631,-6.3645,-6.3597,-6.3688,-6.3691,-6.3793,-6.3837,-6.3853,-6.3872,-6.3821,-6.4011,-6.4029,-6.4046,-6.4103,-6.4127,-6.3845,-6.3844,-6.3843,-6.3842,0,-6.3666,-6.3722,-6.3785,-6.381,-6.3838,-6.3911,-6.3878,-6.3911,-6.3877,-6.3862,-6.3944,-6.3945,-6.3981,-6.4004,-6.3971,-6.4102,-6.4074,-6.402,-6.3932,-6.408,-6.4133,-6.4155,-6.3856,-6.3853,-6.3851,-6.3849,0,0,-6.3911,-6.3913,-6.3937,-6.3947,-6.3955,-6.3997,-6.4066,-6.4102,-6.413,-6.415,-6.4205,-6.4271,-6.422,-6.4237,-6.4205,-6.4258,-6.4397,-6.4196,-6.4196,-6.4231,-6.4538,-6.4577,-6.4603,-6.4364,-6.4368,-6.4371,-6.4536,0,-6.4078,-6.4196,-6.416,-6.4279,-6.4328,-6.426,-6.432,-6.4332,-6.432,-6.436,-6.4347,-6.4392,-6.4324,-6.4333,-6.4383,-6.437,-6.4457,-6.4358,-6.4413,-6.4415,-6.4408,-6.4632,-6.4672,-6.4828,-6.4557,-6.4561,-6.4563,0,-6.4288,-6.4316,-6.444,-6.444,-6.4459,-6.4514,-6.4543,-6.4583,-6.4595,-6.4583,-6.4603,-6.456,-6.4627,-6.4543,-6.4634,-6.4567,-6.4588,-6.4585,-6.459,-6.459,-6.4496,-6.4635,-6.4877,-6.4899,-6.4596,-6.4594,-6.4591,0,-6.445,-6.452,-6.4602,-6.4613,-6.4616,-6.4656,-6.4659,-6.4666,-6.469,-6.4716,-6.4731,-6.4765,-6.4783,-6.481,-6.4777,-6.4719,-6.4872,-6.4785,-6.4862,-6.4863,-6.4894,-6.4891,-6.5139,-6.4914,-6.4914,-6.4913,-6.4913,0,-6.4638,-6.4716,-6.4675,-6.4725,-6.481,-6.4769,-6.4854,-6.4849,-6.4856,-6.4904,-6.4848,-6.4893,-6.485,-6.4891,-6.4867,-6.4944,-6.4954,-6.4944,-6.4936,-6.4947,-6.4948,-6.4957,-6.4944,-6.4919,-6.4918,-6.4917,-6.4916,0,-6.4832,-6.4808,-6.4893,-6.489,-6.4891,-6.4953,-6.4949,-6.4995,-6.4981,-6.5042,-6.5053,-6.503,-6.5076,-6.5048,-6.5095,-6.5078,-6.5178,-6.5157,-6.5174,-6.5167,-6.5244,-6.5236,-6.5503,-6.5535,-6.5293,-6.5295,-6.5297,0,-6.4952,-6.501,-6.5013,-6.5041,-6.5048,-6.5094,-6.5118,-6.5081,-6.5108,-6.5126,-6.517,-6.5212,-6.5242,-6.532,-6.5306,-6.5342,-6.5318,-6.541,-6.5323,-6.5332,-6.5316,-6.5312,-6.5316,-6.5426,-6.5429,-6.5431,-6.5433,0,-6.5166,-6.5151,-6.5188,-6.5222,-6.5253,-6.5278,-6.5297,-6.5324,-6.5286,-6.532,-6.5366,-6.5391,-6.5439,-6.548,-6.5511,-6.5513,-6.5466,-6.5461,-6.548,-6.549,-6.5496,-6.5491,-6.5218,-6.5454,-6.5452,-6.5451,-6.5449,-6.5449,-6.5323,-6.5371,-6.5381,-6.5424,-6.5436,-6.5456,-6.5499,-6.549,-6.5529,-6.5565,-6.5541,-6.5596,-6.5606,-6.5642,-6.565,-6.5692,-6.5655,-6.5683,-6.5689,-6.5696,-6.5705,-6.5493,-6.5698,-6.5697,-6.5697,-6.5696,-6.5696,0,-6.5532,-6.5535,-6.5576,-6.5605,-6.564,-6.5596,-6.5615,-6.5646,-6.5696,-6.571,-6.5742,-6.5795,-6.5836,-6.5827,-6.5862,-6.5898,-6.5877,-6.5908,-6.5903,-6.5904,-6.5738,-6.5716,-6.5924,-6.5924,-6.5924,-6.5924,-6.5924,-6.5924,-6.5644,-6.5722,-6.5709,-6.5792,-6.5795,-6.5848,-6.5863,-6.5881,-6.5892,-6.5954,-6.5988,-6.5982,-6.5987,-6.6023,-6.6057,-6.6054,-6.6068,-6.6106,-6.6094,-6.5939,-6.5916,-6.5894,-6.5873,-6.6111,-6.6111,-6.6256,-6.6258,-6.6259]},{"header":{"parameterUnit":"m.s-1","parameterCategory":1,"la1":30.2991,"la2":30.254,"lo1":-89.0895,"lo2":-89.0444,"dy":0.0017,"dx":0.0017,"nx":28,"ny":28,"refTime":"2025-06-03T21:00:00:Z","depth":0,"parameterNumber":3,"parameterNumberName":"V-component_of_WINDS"},"data":[0,0,0,0,0,0,0,0,0,0,0,0,0,0,0,0,0,0,0,0,0,0,0,0,0,0,0,0,0,0,0,0,0,0,0,0,0,0,0,0,0,0,0,0,0,0,0,0,0,0,0,0,0,0,0,0,0,0,1.9914,1.9915,0,1.9972,1.9972,1.9973,2.0016,2.0016,2.0017,2.0017,2.0072,2.0073,2.0074,0,0,0,0,0,0,0,0,0,0,0,0,0,1.9839,1.984,1.9914,1.9915,1.9916,1.9972,1.9972,1.9973,2.0016,2.0016,2.0017,2.0017,2.0072,2.0073,2.0074,0,0,0,0,0,0,0,0,0,0,0,0,0,1.9882,1.9841,1.9914,1.9944,1.9947,1.9971,1.9972,1.9973,2.0016,2.0016,2.0017,2.0018,2.0071,2.0073,2.0075,2.0073,0,0,2.008,2.008,0,0,0,0,0,0,0,0,1.9879,1.9884,1.9939,1.9942,1.9946,1.9987,1.9966,2.0007,2.0016,1.999,2.0017,2.0018,2.0043,2.0047,2.0057,2.0075,2.0078,2.008,2.0081,2.0081,2.0082,0,0,0,0,0,0,0,1.9876,1.9882,1.9937,1.994,1.9944,1.9954,1.996,1.9974,2.0012,1.9992,1.9995,2.0002,2.0045,2.0055,2.0058,2.0079,2.008,2.0081,2.0082,2.0083,2.01,2.0099,0,0,0,0,0,0,1.9869,1.9879,1.9935,1.9939,1.9913,1.9954,1.9962,1.9973,2.0012,2.0019,2.0001,2.0003,2.0052,2.0056,2.006,2.0061,2.0081,2.0083,2.0084,2.0101,2.01,2.0099,0,0,0,0,0,0,1.9867,1.9874,1.9933,1.991,1.9918,1.9955,1.9968,1.9974,1.9984,2.0019,2.0026,2.0004,2.0052,2.0058,2.007,2.0064,2.0084,2.0085,2.0101,2.01,2.01,2.0063,0,0,0,0,0,0,1.9865,1.9873,1.9873,1.991,1.9919,1.9942,1.9967,1.9975,1.9987,1.9991,2.0024,2.003,2.0053,2.0067,2.0072,2.0066,2.0086,2.0102,2.0101,2.01,2.0065,2.0061,2.0058,0,0,0,0,0,1.9862,1.9859,1.9873,1.9879,1.992,1.9942,1.9947,1.9975,1.9986,1.9987,2.001,2.0029,2.0064,2.0068,2.0073,2.0069,2.0102,2.0101,2.01,2.0067,2.0062,2.0058,0,0,0,0,0,0,1.9819,1.9864,1.988,1.9889,1.9911,1.9949,1.995,1.9969,1.9988,1.999,2.0023,2.003,2.0039,2.0055,2.0059,2.007,2.0086,2.0085,2.0058,2.0054,2.0051,2.0046,2.0088,0,0,0,0,0,1.9811,1.9825,1.9864,1.9868,1.9879,1.9912,1.9922,1.9943,1.9966,1.9976,1.9999,2.0021,2.0037,2.0047,2.0063,2.0068,2.0076,2.0067,2.0064,2.0061,2.006,2.0064,2.0061,2.0095,2.0095,2.0095,0,0,1.9793,1.982,1.9827,1.986,1.988,1.9893,1.992,1.9933,1.9943,1.9977,1.999,2.0009,2.0035,2.0043,2.0048,2.0057,2.0052,2.0059,2.0056,2.0057,2.0063,2.0059,2.0056,2.0095,2.0095,2.0095,0,0,1.9769,1.979,1.9797,1.9817,1.9847,1.9869,1.9871,1.9906,1.992,1.9934,1.9961,1.9973,2.0,2.0018,2.003,2.0014,2.0033,2.0019,2.0,2.0004,2.0001,1.9999,1.9993,1.999,2.0018,2.0018,2.0018,0,1.9743,1.9765,1.9797,1.9809,1.9823,1.9857,1.9864,1.9881,1.9914,1.9922,1.9932,1.9968,1.9988,2.0001,1.9998,2.0007,2.0009,2.0015,1.9999,1.9997,1.9995,1.999,1.9988,2.0016,2.0016,2.0016,2.0017,0,1.9732,1.9747,1.9749,1.9782,1.9796,1.9805,1.9838,1.9849,1.9868,1.9889,1.9903,1.9929,1.9952,1.9957,1.9975,1.9973,1.9978,1.9993,2.0009,1.999,1.9985,1.9984,2.0013,2.0014,2.0015,2.0015,0,0,1.968,1.9733,1.9733,1.9749,1.9785,1.9797,1.9808,1.9832,1.984,1.9862,1.9872,1.9895,1.991,1.9924,1.9944,1.9948,1.9934,1.9963,1.9964,1.9956,1.9934,1.9922,1.9919,1.9947,1.9947,1.9947,1.9932,0,1.9661,1.9684,1.9714,1.9725,1.974,1.9773,1.9782,1.9805,1.9826,1.9841,1.9863,1.9879,1.9897,1.9906,1.9911,1.9935,1.993,1.9936,1.9955,1.9956,1.9947,1.9917,1.9904,1.9889,1.993,1.993,1.993,0,1.9641,1.9664,1.9677,1.9714,1.9721,1.9729,1.9754,1.9768,1.9795,1.981,1.9827,1.985,1.9862,1.9878,1.9896,1.9899,1.9909,1.9922,1.9922,1.9924,1.9941,1.9918,1.9885,1.9882,1.9928,1.9928,1.9928,0,1.9602,1.9636,1.9649,1.9661,1.9704,1.9709,1.9727,1.9755,1.9768,1.9789,1.9798,1.982,1.9832,1.9848,1.9876,1.9885,1.9891,1.9909,1.9903,1.9902,1.9902,1.9902,1.9869,1.9909,1.9909,1.9909,1.9909,0,1.9577,1.9584,1.9632,1.9639,1.9649,1.9683,1.9691,1.9711,1.9736,1.9748,1.9778,1.9788,1.9825,1.984,1.9862,1.9873,1.9878,1.989,1.9896,1.9887,1.9886,1.9893,1.9895,1.9909,1.9909,1.9909,1.9909,0,1.9535,1.9567,1.9583,1.9623,1.9634,1.9638,1.9672,1.9681,1.9704,1.9719,1.9724,1.976,1.9779,1.9809,1.9837,1.9852,1.9859,1.9869,1.985,1.9853,1.9846,1.9846,1.9817,1.9815,1.9856,1.9856,1.9855,0,1.9516,1.9523,1.9565,1.9576,1.9593,1.961,1.9624,1.9658,1.9671,1.9703,1.9708,1.973,1.9749,1.9777,1.9805,1.9826,1.9837,1.9825,1.984,1.9831,1.9836,1.9835,1.9836,1.9821,1.982,1.982,1.982,0,1.9481,1.9497,1.9516,1.9542,1.9558,1.9579,1.9602,1.9609,1.9648,1.9661,1.9682,1.9697,1.9726,1.9747,1.9772,1.979,1.9811,1.9815,1.9815,1.9806,1.9795,1.98,1.984,1.9815,1.9816,1.9816,1.9816,1.9816,1.945,1.9457,1.9488,1.9509,1.953,1.9551,1.9562,1.9587,1.9605,1.9633,1.9652,1.9671,1.9699,1.9735,1.9752,1.9767,1.9776,1.9776,1.9776,1.9775,1.9772,1.9793,1.9772,1.9772,1.9772,1.9772,1.9773,0,1.9415,1.9437,1.9457,1.9488,1.9505,1.9525,1.9552,1.9564,1.9581,1.9606,1.9625,1.9649,1.9669,1.97,1.9723,1.9729,1.9739,1.9734,1.9733,1.9737,1.9762,1.976,1.9725,1.9725,1.9725,1.9725,1.9725,1.9725,1.9399,1.9414,1.9434,1.9459,1.9481,1.9501,1.9515,1.9534,1.9554,1.958,1.9598,1.9618,1.9645,1.9671,1.9691,1.9699,1.9706,1.9697,1.9708,1.9731,1.9735,1.9739,1.9738,1.9699,1.9699,1.9682,1.9682,1.9682]}]]